Gwinn, MI

6:03 PM EDT on April 27, 2017 (GMT -0400)
Sawyer International

Weather History for KSAW - September, 2013

Change the Weather History Date:

Friday, September 13, 2013

  Actual Average (KESC) Record (KESC)
Temperature  
Mean Temperature 48 °F -  
Max Temperature 55 °F 66 °F 80 °F (2005)
Min Temperature 40 °F 50 °F 35 °F (1975)
Degree Days  
Heating Degree Days 18    
Moisture  
Dew Point 39 °F    
Average Humidity 75    
Maximum Humidity 90    
Minimum Humidity 54    
Precipitation  
Precipitation 0.00 in - - ()
Sea Level Pressure  
Sea Level Pressure 30.18 in    
Wind  
Wind Speed 10 mph (North)    
Max Wind Speed 17 mph    
Max Gust Speed 26 mph    
Visibility 10 miles    
Events      
Averages and records for this station are not official NWS values.
T = Trace of Precipitation, MM = Missing Value Source: NWS Daily Summary

Daily Weather History Graph

Daily Weather History Graph

Search for Another Location

Airport or City:

Trip Planner

Search our weather history database for the weather conditions in past years. The results will help you decide how hot, cold, wet, or windy it might be!

Date:

Astronomy

Sep. 13, 2013 Rise Set
Actual Time 7:25 AM EDT 8:04 PM EDT
Civil Twilight 6:55 AM EDT 8:34 PM EDT
Nautical Twilight 6:18 AM EDT 9:10 PM EDT
Astronomical Twilight 5:41 AM EDT 9:48 PM EDT
Moon 4:08 PM EDT (9/13) 12:39 AM EDT (9/13)
Length of Visible Light 13h 39m
Length of Day
12h 39m
First Quarter, 61% of the Moon is Illuminated
Sep 13
First Quarter
Sep 19
Full
Sep 26
Last Quarter
Oct 4
New
Oct 11
First Quarter

Hourly Weather History & Observations

Time (EDT) Temp. Windchill Dew Point Humidity Pressure Visibility Wind Dir Wind Speed Gust Speed Precip Events Conditions
12:17 AM 46.9 °F - 43.2 °F 87% 30.16 in 10.0 mi North 12.7 mph - N/A   Mostly Cloudy
12:37 AM 46.6 °F - 42.1 °F 84% 30.16 in 10.0 mi North 12.7 mph 18.4 mph N/A   Overcast
12:56 AM 46.4 °F 40.4 °F 40.3 °F 79% 30.16 in 10.0 mi North 13.8 mph 18.4 mph N/A   Overcast
1:17 AM 45.9 °F 39.4 °F 40.1 °F 80% 30.16 in 10.0 mi North 15.0 mph 21.9 mph N/A   Overcast
1:37 AM 45.9 °F 40.0 °F 39.6 °F 79% 30.17 in 10.0 mi North 12.7 mph - N/A   Overcast
1:56 AM 45.5 °F 40.8 °F 38.7 °F 77% 30.17 in 10.0 mi North 9.2 mph - N/A   Overcast
2:17 AM 45.0 °F 40.1 °F 39.0 °F 80% 30.17 in 10.0 mi North 9.2 mph - N/A   Overcast
2:36 AM 44.8 °F 41.0 °F 39.2 °F 81% 30.18 in 10.0 mi North 6.9 mph - N/A   Overcast
2:57 AM 45.0 °F 39.7 °F 38.7 °F 79% 30.18 in 10.0 mi North 10.4 mph - N/A   Overcast
3:17 AM 45.1 °F 41.4 °F 38.7 °F 78% 30.18 in 10.0 mi NNW 6.9 mph - N/A   Overcast
3:36 AM 45.0 °F 41.8 °F 39.2 °F 80% 30.18 in 10.0 mi North 5.8 mph - N/A   Overcast
3:57 AM 45.1 °F 40.3 °F 38.3 °F 77% 30.18 in 10.0 mi North 9.2 mph - N/A   Overcast
4:17 AM 45.5 °F 40.3 °F 37.2 °F 73% 30.18 in 10.0 mi North 10.4 mph - N/A   Overcast
4:36 AM 45.5 °F 41.8 °F 37.6 °F 74% 30.18 in 10.0 mi NNW 6.9 mph - N/A   Overcast
4:57 AM 45.0 °F 41.2 °F 37.6 °F 75% 30.19 in 10.0 mi North 6.9 mph - N/A   Overcast
5:17 AM 44.2 °F 42.7 °F 38.3 °F 80% 30.19 in 10.0 mi NW 3.5 mph - N/A   Overcast
5:36 AM 43.7 °F 40.3 °F 37.9 °F 80% 30.20 in 10.0 mi NW 5.8 mph - N/A   Overcast
5:57 AM 43.7 °F 41.1 °F 38.7 °F 82% 30.20 in 10.0 mi NNW 4.6 mph - N/A   Overcast
6:55 AM 44.6 °F 40.2 °F 39.2 °F 81% 30.21 in 10.0 mi North 8.1 mph - N/A   Mostly Cloudy
7:50 AM 42.8 °F 36.2 °F 37.4 °F 81% 30.22 in 10.0 mi North 12.7 mph 18.4 mph N/A   Clear
8:50 AM 46.4 °F 40.7 °F 37.4 °F 71% 30.22 in 10.0 mi NNE 12.7 mph - N/A   Clear
9:55 AM 48.2 °F - 37.4 °F 66% 30.22 in 10.0 mi NNE 17.3 mph 25.3 mph N/A   Clear
10:55 AM 50.0 °F - 37.4 °F 62% 30.24 in 10.0 mi NNE 15.0 mph 26.5 mph N/A   Clear
11:50 AM 50.0 °F - 39.2 °F 66% 30.24 in 10.0 mi North 17.3 mph - N/A   Scattered Clouds
12:55 PM 51.8 °F - 39.2 °F 62% 30.24 in 10.0 mi North 13.8 mph 19.6 mph N/A   Clear
1:50 PM 51.8 °F - 39.2 °F 62% 30.23 in 10.0 mi NE 16.1 mph - N/A   Partly Cloudy
2:50 PM 53.6 °F - 39.2 °F 58% 30.21 in 10.0 mi NNE 12.7 mph - N/A   Partly Cloudy
3:50 PM 55.4 °F - 39.2 °F 54% 30.20 in 10.0 mi NNE 9.2 mph - N/A   Partly Cloudy
4:50 PM 55.4 °F - 39.2 °F 54% 30.19 in 10.0 mi North 5.8 mph - N/A   Partly Cloudy
5:50 PM 53.6 °F - 37.4 °F 54% 30.19 in 10.0 mi NE 8.1 mph - N/A   Clear
6:55 PM 53.6 °F - 39.2 °F 58% 30.18 in 10.0 mi NE 6.9 mph - N/A   Clear
7:50 PM 51.8 °F - 41.0 °F 67% 30.17 in 10.0 mi Calm Calm - N/A   Clear
8:55 PM 48.2 °F - 41.0 °F 76% 30.17 in 10.0 mi Calm Calm - N/A   Clear
9:50 PM 44.6 °F - 39.2 °F 81% 30.15 in 10.0 mi Calm Calm - N/A   Clear
10:17 PM 43.7 °F - 39.2 °F 84% 30.14 in 10.0 mi Calm Calm - N/A   Clear
10:36 PM 42.4 °F - 38.5 °F 86% 30.14 in 10.0 mi Calm Calm - N/A   Clear
10:57 PM 42.8 °F - 38.7 °F 85% 30.13 in 10.0 mi Calm Calm - N/A   Clear
11:16 PM 41.9 °F - 38.1 °F 86% 30.13 in 10.0 mi Calm Calm - N/A   Clear
11:37 PM 40.1 °F - 36.5 °F 87% 30.13 in 10.0 mi Calm Calm - N/A   Clear
11:56 PM 40.1 °F - 37.4 °F 90% 30.13 in 10.0 mi Calm Calm - N/A   Clear